RH
76 78 75 74 72 73 74 73 76 76 74 74 77 77 80 86 90 92 82 85 76 92 73 68 62 64 66 63 61 59 55 55 55 61 64 56 59 50 57 48 44 36 39 36 48 46 39 44 39 45 49 49 48 50
78 76 75 73 72 72 73 72 76 77 75 72 73 78 78 88 88 88 89 80 81 96 71 66 60 58 57 54 57 62 65 69 67 74 80 71 62 56 67 52 54 56 44 53 53 38 54 53 51 40 44 53 52 54
76 76 78 74 73 72 75 76 76 76 76 72 72 77 82 89 91 90 84 94 94 91 66 65 57 57 62 60 47 61 58 60 71 73 77 82 79 56 55 53 61 57 71 79 65 50 51 45 39 35 42 41 44 47
76 77 77 76 73 73 76 76 78 78 79 77 72 77 80 87 93 90 86 91 96 92 91 56 53 60 56 58 60 53 56 57 57 67 74 85 77 52 50 47 51 40 52 57 61 53 41 36 34 41 39 38 40 42
75 77 78 74 74 71 74 77 79 82 82 78 78 84 83 87 93 91 93 76 92 90 88 74 55 54 54 61 62 61 60 64 61 66 86 76 55 64 55 58 54 43 51 56 56 47 50 54 46 41 45 49 49 47
79 79 76 76 71 72 77 79 80 83 85 84 87 89 87 84 86 90 87 88 84 87 89 80 58 62 55 55 59 62 64 69 63 60 58 54 56 65 77 64 51 43 44 41 51 48 50 49 49 46 50 48 47 47
79 76 75 75 78 81 82 82 83 86 90 92 94 93 92 93 89 81 77 88 93 88 96 80 60 49 56 60 64 65 66 65 72 79 78 57 54 82 85 76 50 46 47 55 54 61 66 54 58 51 55 56 56 54
76 76 80 81 82 84 86 86 87 90 90 92 91 91 89 91 86 86 71 88 88 89 92 81 64 60 59 64 64 70 85 88 90 90 77 72 66 75 82 62 66 61 62 64 65 64 68 61 59 55 54 57 63 63
80 82 82 83 84 86 88 89 89 90 92 92 92 92 85 87 93 90 86 84 88 98 97 83 77 64 56 62 69 67 72 81 81 94 80 82 66 80 65 70 66 67 74 73 68 67 66 68 64 60 56 57 62 62
83 84 84 84 85 87 90 90 89 91 92 91 85 88 89 98 82 87 86 98 100 97 97 83 60 72 62 69 75 81 84 82 82 61 62 88 61 51 58 61 69 67 70 68 80 82 76 76 71 69 68 64 64 63
84 84 84 84 85 86 89 90 90 92 90 85 91 96 89 88 83 88 94 94 89 88 82 72 72 76 65 78 79 81 82 88 85 71 80 80 79 74 62 64 59 62 75 78 84 86 87 86 90 84 82 74 72 70
84 84 86 86 86 88 89 90 92 88 87 94 93 87 82 88 82 94 94 92 90 79 75 78 83 90 83 79 90 85 81 88 76 76 81 82 88 72 64 60 58 63 80 86 89 89 86 87 84 87 85 81 77 76
86 87 88 88 88 90 90 90 92 89 88 88 92 90 91 86 98 92 71 85 93 82 80 83 85 86 89 87 91 88 81 74 75 80 83 86 82 66 65 69 69 85 88 89 89 85 86 85 85 87 88 83 72 73
88 89 91 91 92 92 92 93 94 90 86 87 87 99 85 84 76 67 66 58 59 63 66 67 80 94 95 90 86 88 71 80 86 96 93 77 82 75 80 76 82 90 91 91 93 90 91 92 91 91 92 86 83 79
89 90 91 91 91 91 90 93 92 86 84 87 91 92 78 60 66 72 75 76 69 67 75 60 64 80 93 88 94 87 81 96 93 94 78 76 80 84 83 82 84 90 94 96 95 96 94 94 93 95 93 91 88 75
87 90 93 90 88 89 92 92 84 80 86 92 93 90 79 80 78 78 74 68 65 79 57 54 62 81 76 83 90 83 83 95 72 76 62 67 79 84 86 84 91 94 96 97 94 96 96 96 97 97 93 89 86 84
89 82 90 88 88 90 92 81 84 88 86 92 87 79 78 67 67 66 71 75 85 80 76 66 72 63 76 76 75 77 77 60 55 57 62 83 87 88 88 86 90 94 96 97 95 97 97 96 94 95 98 97 95 92
84 75 84 89 89 89 86 85 85 88 86 77 92 65 73 69 66 62 79 87 87 86 86 70 64 73 66 63 64 71 76 64 70 66 67 75 83 84 85 88 93 93 94 96 96 97 95 97 98 98 97 96 88 89
82 83 88 90 89 94 90 87 84 88 80 72 72 73 70 69 79 82 81 84 79 81 80 79 77 81 78 71 72 77 76 65 62 65 76 80 81 84 84 90 87 81 84 90 94 98 98 96 99 99 98 98 98 98
93 94 92 90 88 91 90 82 87 94 80 67 71 70 69 80 83 85 85 88 73 82 87 85 80 76 60 63 62 64 65 69 71 70 73 66 77 83 80 85 73 77 64 80 82 92 92 88 86 98 99 98 98 98
85 85 90 86 92 92 88 83 88 83 75 74 65 67 61 73 86 87 88 91 90 81 78 77 90 88 92 75 70 73 77 75 74 72 83 84 77 85 74 65 67 61 57 57 60 60 63 65 76 90 75 92 89 86
80 87 93 87 92 94 96 79 84 72 84 67 70 66 78 81 84 86 88 84 84 81 74 80 85 77 72 74 71 75 78 77 78 80 92 85 82 86 84 72 63 64 56 58 58 63 67 61 61 56 59 67 68 71
84 92 90 97 96 98 90 86 96 80 83 67 72 79 81 86 86 76 79 84 82 84 74 70 75 75 68 74 73 71 74 76 64 68 72 88 83 66 60 57 56 59 54 53 55 51 55 76 66 58 55 54 56 66
90 97 95 90 91 92 76 89 81 79 72 77 74 72 74 83 85 81 76 78 80 70 68 80 65 64 64 69 54 58 61 66 61 60 62 64 58 56 56 51 49 49 54 52 51 52 50 51 64 51 52 54 55 61
99 90 94 100 86 88 73 73 78 81 78 75 74 67 79 86 81 76 68 73 68 61 60 64 58 52 47 49 51 52 64 55 62 57 55 57 72 58 47 46 47 49 50 46 49 50 49 48 48 48 51 56 58 60
99 79 94 69 66 76 68 76 75 78 80 78 74 74 77 80 71 62 66 66 61 59 54 53 51 52 52 52 49 46 47 52 56 52 50 53 59 59 60 67 46 43 48 53 50 46 48 46 48 50 49 54 80 52
87 63 65 68 70 71 79 74 75 78 74 75 70 69 70 66 59 55 54 59 54 55 50 47 47 44 42 45 51 50 49 53 56 55 50 51 48 49 50 51 48 48 44 52 49 42 42 44 47 50 53 51 52 54
77 70 75 67 72 68 71 65 68 68 65 57 55 58 53 51 45 48 50 55 53 53 50 48 50 44 43 44 43 44 43 46 49 51 48 41 39 43 52 50 52 88 52 47 41 34 34 41 45 48 48 49 53 57
91 74 74 78 72 67 74 72 63 57 67 73 67 61 58 54 53 54 55 52 50 50 48 46 46 48 47 47 48 45 42 42 44 43 42 36 31 32 42 43 42 40 41 41 88 61 53 44 44 44 49 46 46 50
74 70 73 73 76 69 55 57 63 62 75 72 71 74 66 55 53 52 52 52 48 40 36 35 35 37 31 30 30 32 34 37 38 35 33 34 31 31 36 40 36 33 37 36 31 31 71 47 56 41 42 41 42 47
65 71 70 62 58 52 49 53 60 58 56 58 59 60 66 66 50 51 48 46 39 37 35 34 33 32 32 31 33 31 28 29 36 39 39 32 31 34 36 40 37 36 36 35 34 32 31 33 34 37 38 42 44 46
68 69 68 67 58 50 59 65 59 63 51 58 63 72 67 61 48 42 41 43 41 36 41 34 29 27 27 28 30 31 56 28 31 35 43 40 38 38 35 34 35 36 36 36 36 35 36 37 34 33 33 37 43 44
69 64 63 58 50 46 54 61 65 59 63 56 65 63 50 50 50 41 46 37 32 28 28 27 26 26 33 36 32 33 50 33 43 62 65 66 64 53 34 29 33 36 35 34 31 30 33 34 33 37 38 38 38 39
Wind_Speed
11 12 12 12 13 14 15 15 15 15 15 14 14 14 14 15 14 5 1 4 3 2 3 4 3 3 3 1 1 4 3 2 1 1 2 1 3 0 4 2 3 10 7 7 4 8 13 6 4 4 9 9 10 10
11 12 13 12 13 14 14 14 13 13 14 13 13 13 12 12 12 7 2 3 3 2 3 2 4 6 3 1 1 1 3 1 1 1 1 1 2 2 2 4 2 5 5 4 6 2 3 4 4 11 9 10 11 10
10 11 12 12 13 13 13 13 13 13 13 13 12 11 11 10 10 6 2 3 1 2 3 3 1 1 3 9 6 2 2 1 2 3 1 1 5 2 4 4 4 2 3 3 4 2 6 11 13 15 7 11 12 12
10 11 11 12 13 13 13 13 13 14 14 13 12 11 10 10 8 5 2 1 0 0 2 2 1 5 1 5 10 10 1 2 2 1 2 2 3 3 5 7 8 8 3 7 12 12 19 19 11 14 20 19 18 13
10 10 11 11 12 12 13 12 12 14 13 12 12 10 7 9 9 4 2 1 0 2 3 5 8 1 3 6 6 7 9 5 3 3 4 4 3 3 6 5 10 11 15 12 14 15 15 15 18 19 19 17 16 18
10 11 11 12 12 12 14 13 13 14 13 12 11 8 7 10 9 2 1 2 2 1 2 4 3 3 3 2 4 6 5 5 4 4 3 4 3 4 5 5 4 7 9 13 14 13 16 19 20 20 20 21 18 17
10 10 12 12 13 14 14 12 12 13 12 12 11 8 8 7 1 2 2 1 2 2 0 3 4 1 3 2 1 2 5 2 3 3 4 6 8 4 5 13 16 15 12 12 13 13 14 16 10 15 16 18 17 16
10 11 12 12 14 15 13 12 12 12 12 11 9 8 8 7 6 3 2 10 4 1 0 2 3 3 3 1 1 1 2 2 4 3 2 4 2 3 5 2 3 6 9 12 11 8 14 15 18 20 17 14 15 15
10 11 12 12 15 15 13 13 13 13 12 13 12 7 1 1 1 1 2 9 1 1 1 1 2 1 3 0 2 2 1 3 2 3 3 2 3 6 5 1 7 11 9 15 16 15 16 17 19 19 18 16 16 15
11 11 12 13 14 14 13 13 13 13 13 6 1 2 2 0 4 6 2 2 2 1 1 3 2 3 2 1 0 2 1 2 3 2 2 4 5 5 5 3 6 12 14 13 15 14 14 16 17 19 20 17 16 16
11 11 12 13 13 15 13 12 12 12 2 1 1 2 2 3 1 2 1 1 2 3 4 4 5 4 2 2 2 1 2 1 3 1 3 3 3 3 4 8 13 14 13 14 17 16 15 14 15 18 19 20 17 17
12 12 12 13 15 15 14 11 10 3 2 2 2 2 1 0 2 3 2 3 4 3 4 3 2 5 2 2 3 2 2 1 5 2 3 4 4 14 11 14 16 15 15 16 14 14 13 14 16 16 18 17 18 18
12 13 13 15 16 16 14 13 10 6 2 1 0 2 2 3 1 4 5 4 3 4 4 4 3 1 2 2 2 2 4 5 2 2 3 5 6 7 9 12 15 13 12 14 16 14 14 18 18 17 17 15 19 16
13 13 13 14 17 14 12 9 9 5 2 1 2 2 4 4 5 5 4 2 1 3 4 4 2 2 1 3 1 4 2 2 3 2 5 3 5 7 8 10 12 13 13 18 17 16 16 17 16 17 13 13 11 11
13 14 14 8 7 11 8 6 9 1 1 2 3 5 7 5 3 3 3 3 3 1 3 2 2 3 3 3 3 3 3 3 4 5 3 3 6 7 8 10 12 13 15 15 12 12 14 15 16 13 6 4 7 8
13 12 2 5 10 12 2 6 0 0 1 2 5 4 4 3 5 3 5 7 1 2 2 2 3 3 4 3 5 6 3 6 4 3 3 5 8 7 8 9 9 10 13 13 11 11 11 12 14 9 6 7 7 5
10 2 4 8 11 9 5 1 2 4 3 4 5 5 6 6 6 5 3 3 4 4 3 2 5 5 3 3 4 4 5 3 2 3 3 5 7 8 8 9 9 8 10 13 11 10 12 14 15 13 12 8 7 8
3 2 4 8 9 3 1 3 3 4 6 6 5 3 5 6 6 6 3 4 4 4 3 3 1 5 4 4 4 4 4 3 3 4 4 5 6 5 5 8 8 7 8 9 10 10 11 11 12 10 11 9 8 9
7 8 10 8 4 3 2 3 3 4 7 4 5 5 4 5 6 6 2 3 3 1 2 2 4 4 4 3 3 1 2 2 3 3 4 6 6 5 6 6 7 8 7 7 7 6 7 9 8 7 6 6 6 6
15 15 14 11 6 2 3 3 3 4 5 2 3 4 4 4 1 1 2 4 4 3 4 4 4 1 1 1 2 2 3 2 3 4 4 3 3 4 5 5 5 7 5 5 6 7 5 7 8 7 7 7 7 7
5 1 2 7 3 4 3 3 4 4 5 4 2 3 4 1 2 2 2 3 3 3 4 3 2 3 3 2 1 1 2 3 2 3 3 3 4 4 4 4 5 4 4 4 6 7 8 8 6 4 6 6 6 7
2 4 2 3 3 4 4 5 5 4 4 4 3 3 3 2 1 1 3 3 3 2 1 1 1 3 2 2 1 2 1 1 2 3 3 4 3 3 3 4 5 5 4 5 5 4 4 5 6 7 8 8 9 9
4 3 3 5 4 4 4 3 4 4 4 3 2 3 3 2 1 2 2 2 2 1 1 1 3 2 3 3 4 3 1 1 1 2 2 2 4 4 3 3 3 3 4 4 5 6 5 4 5 6 7 8 8 9
3 3 3 4 6 4 2 4 4 4 3 3 3 3 0 0 2 2 2 2 1 2 3 5 4 4 3 3 1 1 1 1 1 2 2 3 3 2 3 4 3 2 3 3 4 4 5 6 6 6 7 8 8 8
1 3 3 5 3 4 4 4 4 3 4 3 3 3 1 1 2 2 2 2 3 4 4 4 4 2 1 1 1 2 4 3 2 3 0 2 3 3 1 2 3 2 2 3 4 5 4 4 5 7 8 8 9 9
5 6 7 3 2 4 3 4 3 3 3 3 4 1 1 1 3 3 2 3 4 5 7 7 6 4 3 3 2 2 2 2 3 4 0 2 2 4 3 4 4 5 3 3 3 5 5 5 5 6 7 7 5 7
4 5 4 2 3 3 4 5 4 4 4 4 2 3 2 3 2 2 2 3 3 4 6 5 5 5 4 2 2 3 4 4 5 3 3 3 4 3 4 2 4 3 2 1 3 5 6 4 3 5 5 5 6 7
5 3 6 3 4 4 4 4 4 4 3 2 2 3 2 2 1 0 2 3 3 4 4 4 4 4 4 3 4 3 3 2 3 4 4 4 3 3 4 3 3 1 2 2 3 4 5 5 4 4 5 6 5 5
4 2 3 5 5 4 6 5 4 3 2 3 2 2 2 2 1 1 2 3 4 4 5 4 4 4 4 4 4 4 4 4 3 4 4 3 3 2 3 3 2 2 2 3 6 6 6 6 5 5 5 5 5 4
5 6 4 4 5 6 5 7 3 1 3 2 1 1 2 3 1 1 3 5 6 6 4 3 3 5 4 3 3 3 4 4 5 5 4 2 3 2 2 3 3 3 2 1 1 3 3 2 3 2 2 2 3 2
2 4 5 5 5 4 6 4 3 3 3 3 3 3 2 2 1 3 4 4 4 4 5 5 4 4 4 5 5 5 5 4 6 7 5 3 2 1 2 3 3 3 2 1 1 2 3 3 3 3 2 3 3 3
5 8 5 4 4 2 3 3 2 2 2 2 3 3 2 2 3 3 5 6 5 6 7 6 6 7 6 5 5 6 7 6 3 2 5 5 5 4 4 4 4 4 3 2 2 3 3 4 4 2 3 2 2 4
5 4 5 5 4 4 3 3 2 2 2 2 2 2 3 2 4 1 3 7 8 9 8 8 8 4 4 6 7 5 5 4 4 4 6 8 6 5 5 4 5 5 4 3 3 3 4 4 4 3 4 5 5 4
Wind_Direction
336 339 340 343 347 350 349 351 351 351 350 354 353 355 359 8 6 8 34 9 12 351 277 224 209 178 147 206 292 28 231 146 329 186 249 162 251 269 271 287 253 225 235 226 222 239 258 26 156 279 348 319 307 313
333 334 336 338 342 347 347 349 346 345 344 347 350 347 351 9 3 2 29 24 339 238 328 284 272 279 262 132 202 153 3 303 9 31 347 288 258 240 291 245 180 240 269 266 232 260 65 12 322 334 323 300 301 308
330 331 333 333 339 340 340 340 340 339 337 339 341 339 342 1 3 7 326 335 326 4 255 280 229 95 193 220 231 269 187 284 136 359 347 329 266 244 256 246 282 207 181 249 286 215 328 314 307 304 313 329 314 300
323 326 328 328 334 333 331 330 330 330 334 332 333 331 347 343 345 351 324 339 279 186 333 111 330 289 304 192 208 222 56 97 28 325 284 264 261 220 261 282 266 272 281 283 278 284 293 294 311 312 306 306 297 299
320 322 320 330 330 325 322 319 321 326 329 328 323 335 341 331 333 313 256 262 98 353 327 314 308 73 277 184 205 211 229 243 258 226 218 238 245 240 237 262 258 255 259 263 277 285 285 290 291 293 295 292 293 294
312 312 321 322 313 313 318 315 321 327 326 325 323 328 330 334 342 311 153 58 226 230 313 316 347 276 316 265 243 230 212 208 227 227 232 237 241 237 257 260 263 274 271 276 280 281 286 285 284 280 276 282 286 287
308 313 310 309 310 313 311 314 322 322 327 325 325 327 336 332 342 304 360 79 358 238 342 301 313 314 314 290 160 152 164 182 224 235 233 258 262 222 254 263 281 292 299 287 278 278 274 273 278 300 299 293 292 288
307 304 314 319 316 317 320 318 317 318 316 313 313 319 311 304 281 276 229 226 227 105 305 327 298 295 0 295 239 360 184 197 199 280 270 241 208 228 255 271 319 311 303 289 281 286 255 287 290 285 286 288 292 286
317 319 315 313 314 318 321 318 314 317 311 301 293 288 312 143 217 346 139 132 164 353 317 262 302 323 351 101 266 184 298 248 105 253 245 247 227 233 249 150 334 317 296 288 291 290 285 282 282 284 284 280 279 284
303 307 311 309 313 316 314 315 316 319 313 311 120 187 123 214 139 157 186 125 191 178 189 251 294 257 272 340 244 274 179 293 284 224 279 240 256 279 226 242 316 311 307 300 294 289 292 293 296 293 289 285 277 273
311 314 306 306 310 310 308 311 317 324 301 288 334 49 330 314 228 240 172 190 145 227 206 227 234 260 169 256 297 256 318 287 276 86 278 250 244 23 325 312 331 327 316 303 298 277 272 275 278 283 283 280 276 270
309 303 303 309 306 300 299 304 307 330 20 319 309 295 273 212 219 252 205 152 210 244 192 214 206 209 236 253 257 181 274 172 255 351 280 290 6 321 321 327 324 322 319 313 302 296 283 282 283 277 275 276 272 269
305 309 315 304 309 304 302 296 253 240 304 198 243 222 182 159 255 212 201 196 227 199 195 188 198 186 150 230 259 266 236 238 292 226 235 232 234 268 318 322 321 312 309 308 302 295 294 291 290 277 269 262 267 262
304 302 309 316 314 313 314 286 183 156 195 219 180 252 225 210 227 215 217 215 197 206 171 189 170 176 136 183 212 243 257 297 283 255 246 270 263 299 312 319 318 321 327 315 304 301 301 308 309 306 278 251 239 249
308 308 307 311 347 343 2 100 135 147 190 239 197 231 228 239 264 260 250 256 220 191 182 173 141 180 168 198 199 266 242 237 226 239 239 256 295 306 316 320 321 324 328 319 313 309 320 327 326 322 312 233 215 239
312 313 60 16 1 351 5 140 131 215 236 231 234 246 228 264 257 232 234 260 206 167 160 230 162 188 209 218 194 219 194 228 245 221 264 285 296 308 318 321 321 323 323 324 334 332 331 332 333 339 27 43 41 10
311 235 18 4 351 341 128 159 196 226 253 235 240 234 258 285 269 262 234 233 150 158 209 188 224 205 121 223 233 196 220 236 277 285 301 291 290 305 312 320 322 325 330 336 334 336 338 341 360 15 29 29 33 32
248 284 332 351 345 301 224 213 245 246 245 236 244 244 210 236 259 260 219 170 171 186 185 217 203 190 225 223 224 221 244 282 266 276 296 300 302 303 312 321 322 324 330 336 353 344 346 352 358 357 4 358 31 27
273 284 284 289 301 301 290 215 220 259 241 247 248 239 247 254 240 260 237 175 190 168 175 194 225 211 223 214 262 292 249 252 306 325 298 299 301 305 314 321 322 340 346 347 349 349 343 346 337 346 4 354 9 13
282 276 264 239 206 236 252 227 215 259 266 274 238 241 239 242 294 217 162 156 173 186 204 216 245 334 277 336 265 299 312 314 291 301 309 342 356 328 324 327 326 324 337 9 5 359 353 11 11 358 359 2 17 14
289 280 47 139 181 230 271 264 252 249 294 269 281 246 260 203 237 211 151 156 186 221 228 207 175 219 215 170 248 299 288 244 293 297 319 312 348 332 323 333 341 342 351 10 17 15 14 16 13 360 15 22 26 37
273 299 176 199 227 196 253 223 256 299 264 271 274 233 272 269 231 164 137 202 234 248 220 116 164 177 155 166 155 222 265 253 273 272 254 260 310 329 336 339 342 347 358 354 359 8 351 357 5 20 31 32 39 47
301 201 236 199 226 218 250 167 244 230 256 263 274 248 216 216 152 150 242 238 270 165 147 150 133 138 121 139 176 164 182 271 329 324 328 301 288 285 293 317 339 343 2 25 359 1 14 3 15 23 31 29 44 47
206 247 228 210 204 257 226 229 219 257 255 249 246 272 222 95 162 221 256 244 165 159 162 158 167 152 166 172 152 168 187 229 309 301 260 273 316 334 319 315 322 328 341 340 3 14 21 24 12 40 42 55 46 47
269 251 159 260 239 251 232 231 222 232 254 233 258 252 194 194 246 241 251 242 186 164 159 171 179 171 148 162 240 243 198 230 270 309 16 239 283 292 345 357 350 349 331 330 26 15 22 19 32 38 43 47 53 57
226 205 184 230 226 228 238 263 236 249 264 257 237 256 180 222 243 248 224 197 183 175 179 190 187 184 219 233 276 308 8 204 218 257 226 217 286 303 341 17 35 58 28 9 17 22 22 14 30 46 49 52 47 40
247 233 208 233 282 286 271 254 250 254 252 236 217 192 210 248 245 237 186 191 188 181 185 182 192 210 238 191 213 252 256 226 237 308 324 285 292 267 254 296 35 41 358 3 5 12 3 357 27 48 51 51 38 20
244 253 214 189 215 226 265 283 260 241 230 185 192 221 243 239 279 138 187 154 165 152 161 178 206 227 247 252 255 260 264 234 240 248 255 243 232 235 210 230 251 200 290 43 25 40 25 40 49 49 48 47 43 33
228 214 207 239 226 234 224 229 250 248 135 177 213 247 257 251 292 206 162 162 159 163 161 176 193 211 233 233 238 239 237 233 249 289 318 350 4 96 162 158 159 176 164 135 67 52 47 47 45 55 60 54 47 50
231 193 220 230 220 224 231 200 238 202 198 217 281 287 249 239 236 143 159 163 171 182 174 177 182 204 213 231 241 229 201 213 228 259 290 323 40 59 156 167 166 158 149 128 78 112 160 169 143 126 88 58 43 29
190 186 221 236 260 247 250 261 254 244 229 223 202 242 265 309 267 192 202 194 182 160 170 195 205 212 225 230 235 252 262 209 226 231 236 231 197 147 179 181 175 163 160 174 287 314 334 339 351 356 6 3 12 338
197 208 211 234 250 265 265 236 251 233 208 219 208 203 218 231 248 186 185 171 182 196 213 225 233 241 231 255 267 258 253 275 256 216 205 209 214 210 190 185 183 179 181 197 232 272 272 293 303 318 306 287 308 329
204 204 216 250 258 252 205 232 239 252 217 238 227 216 223 240 252 176 152 207 205 206 209 215 231 256 263 273 281 283 254 241 214 202 213 213 210 190 184 186 182 194 207 236 265 277 287 282 277 269 285 297 312 314